Location: Unspecified
(48.8656°N, 0.0000°E)
Time: 18:31:18
(UTC+00:00)

Vanguard 1 - Pass Details

Date: 26 June 2019
Orbit: 653 x 3830 km, 34.3° (Epoch: 18 July)

Event Time Altitude Azimuth Distance (km) Brightness Sun altitude
Rises 22:01:58 0° 183° (S) 7,894 - -12.9°
Reaches altitude 10° 22:11:23 10° 164° (SSE) 6,912 - -13.6°
Exits shadow 22:19:09 15° 145° (SE) 6,308 13.5 -14.2°
Maximum altitude 22:21:50 15° 137° (SE) 6,171 13.5 -14.3°
Drops below altitude 10° 22:31:06 10° 109° (ESE) 6,107 13.7 -14.9°
Sets 22:38:08 0° 90° (E) 6,551 14.1 -15.3°
